Regional Weather Roundup
Issued by NWS

Home | Current Version | Previous Version | Text Only | Print | Product List | Glossary Off
Versions: 1 2 3 4 5 6 7 8 9 10 11 12 13 14 15 16 17 18 19 20 21 22 23 24 25 26 27 28 29 30 31 32 33 34 35 36 37 38 39 40 41 42 43 44 45 46 47 48 49 50

000
ASUS45 KABQ 220810
RWRNM
NEW MEXICO REGIONAL WEATHER ROUNDUP
NATIONAL WEATHER SERVICE ALBUQUERQUE NM
100 AM MST SUN JAN 22 2017

NOTE: "FAIR" MEANS FEW OR NO CLOUDS BELOW 12,000 FEET AGL WITH NO
       SIGNIFICANT WEATHER OR OBSTRUCTIONS TO VISION.

      THIS PRODUCT IS RELEASED AS TWO VERSIONS.  ONE VERSION NEAR
      THE TOP OF THE HOUR CONTAINING PRELIMINARY DATA FROM ALBUQUERQUE
      AND OTHER STATIONS.  A FINAL VERSION WITH ADDITIONAL DATA IS
      ISSUED ABOUT 10 MINUTES AFTER THE HOUR.

NMZ501-503-504-510>518-220900-
NORTHWEST PLATEAU/NORTHCENTRAL MOUNTAINS

CITY           SKY/WX    TMP DP  RH WIND       PRES   REMARKS
FARMINGTON     FAIR      31  25  78 W18G25    29.94R WCI  19
LOS ALAMOS     FAIR      30  17  56 NW13G21   29.83R WCI  20
SANTA FE       CLOUDY    33  22  63 S5        29.85R WCI  29
TAOS           MOCLDY    25  14  63 SW9       29.82R WCI  15
ANGEL FIRE     LGT SNOW  24  19  83 S3        29.79R

$$
NMZ402-403-502-505>509-220900-
WESTCENTRAL MOUNTAINS/SOUTHWEST MOUNTAINS

CITY           SKY/WX    TMP DP  RH WIND       PRES   REMARKS
GALLUP         FAIR      18  14  84 SW9       30.02R WCI   7
GRANTS         FAIR      28  17  63 W22G36    29.98R WCI  14
SILVER CITY    FAIR      31  26  83 NW8       30.07R WCI  23

$$
NMZ407-409-411-412-220900-
SOUTHERN DESERTS

CITY           SKY/WX    TMP DP  RH WIND       PRES   REMARKS
DEMING         FAIR      37  29  72 W17       30.06R WCI  27
LAS CRUCES     FAIR      35  28  75 SW10      30.05R WCI  27
HOLLOMAN AFB   FAIR      40  21  47 N6        29.99R
ALAMOGORDO     FAIR      39  21  48 N6        29.97R WCI  35
T OR C         FAIR      36  19  50 NW10      29.99R WCI  28

$$
NMZ519>523-220900-
CENTRAL VALLEYS/CENTRAL HIGHLANDS

CITY           SKY/WX    TMP DP  RH WIND       PRES   REMARKS
ALBUQUERQUE    MOCLDY    38  21  50 CALM      29.94R
DOUBLE EAGLE   FAIR      31  20  63 W13       29.92R WCI  22
MORIARTY ARPT  FAIR      33  19  55 NW23G37   29.86R WCI  20
CLINES CORNERS FAIR      27  19  72 W32G40    29.80R WCI  10
BELEN          FAIR      33  20  59 W3        29.95R
SOCORRO        FAIR      37  19  50 N10       29.96R WCI  29

$$
NMZ524>526-539-540-220900-
SOUTHCENTRAL MOUNTAINS

CITY           SKY/WX    TMP DP  RH WIND       PRES   REMARKS
RUIDOSO        FAIR      28  16  59 W37G55    29.81F WCI  11

$$
NMZ527>531-220900-
NORTHEAST HIGHLANDS/NORTHEAST PLAINS

CITY           SKY/WX    TMP DP  RH WIND       PRES   REMARKS
LAS VEGAS      FAIR      30  14  51 NW5       29.71R WCI  25
RATON          MOCLDY    31  20  63 N14       29.70R WCI  21
CLAYTON        FAIR      34  32  92 NW18      29.65R WCI  23

$$
NMZ532>537-220900-
EASTCENTRAL PLAINS

CITY           SKY/WX    TMP DP  RH WIND       PRES   REMARKS
TUCUMCARI      MOCLDY    41  27  57 W10       29.67R
CANNON AFB     FAIR      38  27  64 NW17G24   29.66R WCI  29
CLOVIS AIRPORT FAIR      37  25  60 NW13      29.64R WCI  29

$$
NMZ028-029-538-220900-
SOUTHEAST PLAINS

CITY           SKY/WX    TMP DP  RH WIND       PRES   REMARKS
ROSWELL        FAIR      46  20  35 NW25G36   29.72R
ARTESIA        FAIR      46  21  36 NW25G37   29.75R
CARLSBAD       FAIR      45  23  42 NW14G22   29.79R


$$



USA.gov is the U.S. government's official web portal to all federal, state and local government web resources and services.